KE6AFE Weather Reports


Display with metric or nautical units.
time (UTC)temp
F
wind
direction
speed
MPH
gust
MPH
rain 1hr
in
rain 24hr
in
rain mn
in
humidity
%
barometer
mb
20260902004857 71 1 0.0 0.0 0.00 0.00 0.00 52 1016.9
20260902003847 71 1 0.0 0.0 0.00 0.00 0.00 52 1016.9
20260902002837 72 1 0.0 0.0 0.00 0.00 0.00 52 1016.9
20260902001827 72 1 0.0 0.0 0.00 0.00 0.00 53 1016.9
20260902000817 72 1 0.0 0.0 0.00 0.00 0.00 53 1016.9
20260901235807 72 1 0.0 0.0 0.00 0.00 0.00 51 1016.9
20260901234757 72 1 0.0 0.0 0.00 0.00 0.00 53 1017.0
20260901233747 73 1 0.0 0.0 0.00 0.00 0.00 53 1017.0
20260901232737 73 1 0.0 0.0 0.00 0.00 0.00 52 1017.1
20260901231727 73 1 0.0 0.0 0.00 0.00 0.00 51 1017.2
20260901230717 73 1 0.0 0.0 0.00 0.00 0.00 50 1017.3
20260901225707 73 1 0.0 0.0 0.00 0.00 0.00 47 1017.3
20260901224657 74 1 0.0 0.0 0.00 0.00 0.00 46 1017.3
20260901223647 74 1 0.0 0.0 0.00 0.00 0.00 47 1017.4
20260901222637 74 1 0.0 0.0 0.00 0.00 0.00 48 1017.4
20260901221627 74 1 0.0 0.0 0.00 0.00 0.00 47 1017.4
20260901220617 74 1 0.0 0.0 0.00 0.00 0.00 47 1017.5
20260901215607 74 1 0.0 0.0 0.00 0.00 0.00 48 1017.6
20260901214557 74 1 0.0 0.0 0.00 0.00 0.00 50 1017.7
20260901213546 73 1 0.0 0.0 0.00 0.00 0.00 49 1017.6
20260901212536 73 1 0.0 0.0 0.00 0.00 0.00 49 1017.6
20260901211526 73 1 0.0 0.0 0.00 0.00 0.00 48 1017.5
20260901210516 72 1 0.0 0.0 0.00 0.00 0.00 50 1017.6
20260901205506 72 1 0.0 0.0 0.00 0.00 0.00 50 1017.7
20260901204456 72 1 0.0 0.0 0.00 0.00 0.00 50 1017.6
20260901203446 71 1 0.0 0.0 0.00 0.00 0.00 51 1017.7
20260901202436 70 1 0.0 0.0 0.00 0.00 0.00 52 1017.8
20260901201426 70 1 0.0 0.0 0.00 0.00 0.00 52 1017.8
20260901200416 70 1 0.0 0.0 0.00 0.00 0.00 54 1018.0
20260901195406 70 1 0.0 0.0 0.00 0.00 0.00 59 1018.0
20260901194356 69 1 0.0 0.0 0.00 0.00 0.00 63 1018.0
20260901193346 68 1 0.0 0.0 0.00 0.00 0.00 64 1018.1
20260901192336 68 0 0.0 0.0 0.00 0.00 0.00 64 1018.0
20260901191326 68 1 0.0 0.0 0.00 0.00 0.00 64 1018.0
20260901190316 68 1 0.0 0.0 0.00 0.00 0.00 63 1018.0
20260901185306 68 1 0.0 0.0 0.00 0.00 0.00 62 1017.9
20260901184256 68 1 0.0 0.0 0.00 0.00 0.00 59 1017.8
20260901183246 68 1 0.0 0.0 0.00 0.00 0.00 58 1017.9
20260901182236 68 1 0.0 0.0 0.00 0.00 0.00 59 1017.9
20260901181226 68 1 0.0 0.0 0.00 0.00 0.00 58 1017.8
20260901180216 68 1 0.0 0.0 0.00 0.00 0.00 59 1017.7
20260901175206 67 1 0.0 0.0 0.00 0.00 0.00 61 1017.7
20260901174156 67 1 0.0 0.0 0.00 0.00 0.00 62 1017.7
20260901173146 66 1 0.0 0.0 0.00 0.00 0.00 63 1017.6
20260901172136 66 1 0.0 0.0 0.00 0.00 0.00 63 1017.4
20260901171126 66 1 0.0 0.0 0.00 0.00 0.00 63 1017.4
20260901170116 66 2 0.0 0.0 0.00 0.00 0.00 58 1017.2
20260901165106 66 1 0.0 0.0 0.00 0.00 0.00 58 1017.0
20260901164056 65 0 0.0 0.0 0.00 0.00 0.00 60 1017.0
20260901163046 64 1 0.0 0.0 0.00 0.00 0.00 61 1017.0
20260901162036 64 1 0.0 0.0 0.00 0.00 0.00 61 1017.1
20260901161026 63 2 0.0 0.0 0.00 0.00 0.00 62 1017.2
20260901160016 63 1 0.0 0.0 0.00 0.00 0.00 63 1017.1
20260901155006 63 2 0.0 0.0 0.00 0.00 0.00 63 1016.9
20260901153956 62 2 0.0 0.0 0.00 0.00 0.00 64 1016.6
20260901152946 62 1 0.0 0.0 0.00 0.00 0.00 64 1016.5
20260901151936 62 1 0.0 0.0 0.00 0.00 0.00 64 1016.6
20260901150926 61 1 0.0 0.0 0.00 0.00 0.00 64 1016.7
20260901145916 61 1 0.0 0.0 0.00 0.00 0.00 64 1016.5
20260901144906 61 1 0.0 0.0 0.00 0.00 0.00 64 1016.4
20260901143856 61 2 0.0 0.0 0.00 0.00 0.00 64 1016.3
20260901142846 61 2 0.0 0.0 0.00 0.00 0.00 64 1016.1
20260901141836 61 2 0.0 0.0 0.00 0.00 0.00 64 1016.0
20260901140826 61 1 0.0 0.0 0.00 0.00 0.00 64 1015.9
20260901135816 61 2 0.0 0.0 0.00 0.00 0.00 64 1015.7
20260901134806 61 1 0.0 0.0 0.00 0.00 0.00 64 1015.6
20260901133756 61 1 0.0 0.0 0.00 0.00 0.00 64 1015.5
20260901132746 61 1 0.0 0.0 0.00 0.00 0.00 63 1015.5
20260901131736 61 1 0.0 0.0 0.00 0.00 0.00 63 1015.5
20260901130726 61 1 0.0 0.0 0.00 0.00 0.00 63 1015.4
20260901125716 61 1 0.0 0.0 0.00 0.00 0.00 63 1015.3
20260901124706 61 1 0.0 0.0 0.00 0.00 0.00 63 1015.2
20260901123656 61 2 0.0 0.0 0.00 0.00 0.00 63 1015.3
20260901122646 61 2 0.0 0.0 0.00 0.00 0.00 63 1015.2
20260901121636 61 2 0.0 0.0 0.00 0.00 0.00 63 1015.2
20260901120626 61 1 0.0 0.0 0.00 0.00 0.00 62 1015.0
20260901115616 61 1 0.0 0.0 0.00 0.00 0.00 62 1015.1
20260901114606 61 1 0.0 0.0 0.00 0.00 0.00 62 1015.2
20260901113556 61 1 0.0 0.0 0.00 0.00 0.00 62 1015.3
20260901112546 61 1 0.0 0.0 0.00 0.00 0.00 62 1015.4
20260901111536 61 2 0.0 0.0 0.00 0.00 0.00 62 1015.4
20260901110526 61 2 0.0 0.0 0.00 0.00 0.00 62 1015.2
20260901105516 61 2 0.0 0.0 0.00 0.00 0.00 62 1015.3
20260901104506 61 1 0.0 0.0 0.00 0.00 0.00 62 1015.1
20260901103456 61 1 0.0 0.0 0.00 0.00 0.00 61 1015.0
20260901102446 61 1 0.0 0.0 0.00 0.00 0.00 61 1015.0
20260901101436 61 2 0.0 0.0 0.00 0.00 0.00 61 1015.0
20260901100426 61 2 0.0 0.0 0.00 0.00 0.00 62 1015.0
20260901095416 61 2 0.0 0.0 0.00 0.00 0.00 62 1015.2
20260901094406 62 2 0.0 0.0 0.00 0.00 0.00 62 1015.0
20260901093356 62 2 0.0 0.0 0.00 0.00 0.00 63 1015.0
20260901092346 62 1 0.0 0.0 0.00 0.00 0.00 63 1015.0
20260901091336 62 2 0.0 0.0 0.00 0.00 0.00 63 1014.9
20260901090326 62 2 0.0 0.0 0.00 0.00 0.00 63 1015.0
20260901085316 62 1 0.0 0.0 0.00 0.00 0.00 63 1014.9
20260901084306 62 2 0.0 0.0 0.00 0.00 0.00 63 1014.9
20260901083255 62 2 0.0 0.0 0.00 0.00 0.00 63 1014.9
20260901082246 62 2 0.0 0.0 0.00 0.00 0.00 63 1014.9
20260901081236 62 2 0.0 0.0 0.00 0.00 0.00 63 1014.9
20260901080226 62 2 0.0 0.0 0.00 0.00 0.00 63 1014.9
20260901075215 62 2 0.0 0.0 0.00 0.00 0.00 63 1014.9
20260901074206 62 1 0.0 0.0 0.00 0.00 0.00 63 1015.0
20260901073155 62 2 0.0 0.0 0.00 0.00 0.00 63 1015.1
20260901072145 62 2 0.0 0.0 0.00 0.00 0.00 63 1015.1
20260901071136 62 2 0.0 0.0 0.00 0.00 0.00 63 1015.0
20260901070125 62 2 0.0 0.0 0.00 0.00 0.00 63 1015.1
20260901065116 63 1 0.0 0.0 0.00 0.00 0.00 63 1015.2
20260901064106 63 1 0.0 0.0 0.00 0.00 0.00 63 1015.1
20260901063056 63 2 0.0 0.0 0.00 0.00 0.00 63 1015.1
20260901062046 63 2 0.0 0.0 0.00 0.00 0.00 63 1015.1
20260901061036 63 2 0.0 0.0 0.00 0.00 0.00 63 1015.3
20260901060026 63 1 0.0 0.0 0.00 0.00 0.00 64 1015.2
20260901055015 63 2 0.0 0.0 0.00 0.00 0.00 63 1015.3
20260901054006 63 1 0.0 0.0 0.00 0.00 0.00 63 1015.3
20260901052956 63 1 0.0 0.0 0.00 0.00 0.00 63 1015.4
20260901051945 63 1 0.0 0.0 0.00 0.00 0.00 63 1015.4
20260901050936 63 1 0.0 0.0 0.00 0.00 0.00 63 1015.5
20260901045925 63 1 0.0 0.0 0.00 0.00 0.00 63 1015.2
20260901044915 63 2 0.0 0.0 0.00 0.00 0.00 63 1015.0
20260901043905 64 1 0.0 0.0 0.00 0.00 0.00 62 1015.0
20260901042855 64 34 0.0 0.0 0.00 0.00 0.00 62 1014.9
20260901041845 64 0 0.0 0.0 0.00 0.00 0.00 61 1014.8
20260901040835 65 0 0.0 0.0 0.00 0.00 0.00 61 1014.7
20260901035825 65 0 0.0 0.0 0.00 0.00 0.00 61 1014.7
20260901034815 66 0 0.0 0.0 0.00 0.00 0.00 61 1014.5
20260901033805 66 0 0.0 0.0 0.00 0.00 0.00 63 1014.5
20260901032755 66 0 0.0 0.0 0.00 0.00 0.00 63 1014.3
20260901031746 66 0 0.0 0.0 0.00 0.00 0.00 63 1014.2
20260901030735 67 0 0.0 0.0 0.00 0.00 0.00 62 1014.3
20260901025725 67 0 0.0 0.0 0.00 0.00 0.00 61 1014.2
20260901024715 68 0 0.0 0.0 0.00 0.00 0.00 60 1014.0
20260901023705 68 0 0.0 0.0 0.00 0.00 0.00 58 1013.9
20260901022655 68 1 0.0 0.0 0.00 0.00 0.00 56 1014.0
20260901021645 69 1 0.0 0.0 0.00 0.00 0.00 56 1014.0
20260901020635 69 1 0.0 0.0 0.00 0.00 0.00 56 1013.9
20260901015626 70 1 0.0 0.0 0.00 0.00 0.00 56 1014.0
20260901014615 70 1 0.0 0.0 0.00 0.00 0.00 55 1013.9
20260901013605 70 1 0.0 0.0 0.00 0.00 0.00 55 1013.7
20260901012555 71 1 0.0 0.0 0.00 0.00 0.00 55 1013.8
20260901011545 71 1 0.0 0.0 0.00 0.00 0.00 55 1014.0
20260901010536 72 1 0.0 0.0 0.00 0.00 0.00 54 1014.0